EN

Hourly Weather Acapetagua

Today, 25 November, Wednesday

Time Temperature Precipitation Wind Pressure Humidity
00:00 +11°C° 0 mm 0 mps 548 mmHg 49%
01:00 +11°C° 0 mm 0 mps 547 mmHg 50%
02:00 +11°C° 0 mm 1 mps 547 mmHg 51%
03:00 +10°C° 0 mm 0 mps 547 mmHg 51%
04:00 +10°C° 0 mm 0 mps 547 mmHg 51%
05:00 +10°C° 0 mm 0 mps 547 mmHg 52%
06:00 +11°C° 0 mm 0 mps 548 mmHg 48%
07:00 +13°C° 0 mm 0 mps 549 mmHg 44%
08:00 +14°C° 0 mm 0 mps 550 mmHg 41%
09:00 +18°C° 0 mm 1 mps 551 mmHg 37%
10:00 +20°C° 0 mm 1 mps 551 mmHg 33%
11:00 +20°C° 0 mm 2 mps 552 mmHg 29%
12:00 +20°C° 0 mm 2 mps 551 mmHg 28%
13:00 +21°C° 0 mm 2 mps 551 mmHg 27%
14:00 +21°C° 0 mm 2 mps 550 mmHg 25%
15:00 +19°C° 0 mm 2 mps 550 mmHg 30%
16:00 +18°C° 0 mm 2 mps 549 mmHg 35%
17:00 +16°C° 0 mm 2 mps 548 mmHg 40%
18:00 +16°C° 0 mm 2 mps 549 mmHg 42%
19:00 +15°C° 0 mm 1 mps 549 mmHg 44%
20:00 +14°C° 0 mm 1 mps 549 mmHg 45%
21:00 +14°C° 0 mm 1 mps 549 mmHg 46%
22:00 +13°C° 0 mm 1 mps 549 mmHg 46%
23:00 +13°C° 0 mm 1 mps 548 mmHg 47%

Tomorrow, 26 November, Thursday

Time Temperature Precipitation Wind Pressure Humidity
00:00 +12°C° 0 mm 1 mps 548 mmHg 48%
01:00 +11°C° 0 mm 0 mps 548 mmHg 49%
02:00 +10°C° 0 mm 0 mps 547 mmHg 50%
03:00 +10°C° 0 mm 0 mps 547 mmHg 52%
04:00 +10°C° 0 mm 0 mps 547 mmHg 53%
05:00 +10°C° 0 mm 0 mps 547 mmHg 55%
06:00 +11°C° 0 mm 0 mps 548 mmHg 50%
07:00 +13°C° 0 mm 0 mps 549 mmHg 46%
08:00 +14°C° 0 mm 0 mps 550 mmHg 42%
09:00 +18°C° 0 mm 1 mps 551 mmHg 37%
10:00 +19°C° 0 mm 1 mps 551 mmHg 32%
11:00 +20°C° 0 mm 2 mps 551 mmHg 27%
12:00 +20°C° 0 mm 2 mps 551 mmHg 26%
13:00 +21°C° 0 mm 2 mps 550 mmHg 24%
14:00 +21°C° 0 mm 2 mps 550 mmHg 23%
15:00 +19°C° 0 mm 2 mps 549 mmHg 27%
16:00 +19°C° 0 mm 1 mps 549 mmHg 32%
17:00 +16°C° 0 mm 1 mps 548 mmHg 36%
18:00 +16°C° 0 mm 1 mps 548 mmHg 40%
19:00 +15°C° 0 mm 1 mps 548 mmHg 43%
20:00 +14°C° 0 mm 1 mps 548 mmHg 47%
21:00 +14°C° 0 mm 1 mps 548 mmHg 47%
22:00 +13°C° 0 mm 1 mps 548 mmHg 48%
23:00 +12°C° 0 mm 0 mps 548 mmHg 48%

Day after tomorrow, 27 November, Friday

Time Temperature Precipitation Wind Pressure Humidity
00:00 +11°C° 0 mm 0 mps 547 mmHg 49%
01:00 +11°C° 0 mm 0 mps 547 mmHg 50%
02:00 +11°C° 0 mm 0 mps 546 mmHg 51%
03:00 +10°C° 0 mm 0 mps 546 mmHg 52%
04:00 +10°C° 0 mm 0 mps 546 mmHg 52%
05:00 +10°C° 0 mm 0 mps 546 mmHg 53%
06:00 +11°C° 0 mm 0 mps 547 mmHg 48%
07:00 +13°C° 0 mm 0 mps 548 mmHg 44%
08:00 +14°C° 0 mm 0 mps 549 mmHg 40%
09:00 +18°C° 0 mm 1 mps 550 mmHg 34%
10:00 +20°C° 0 mm 1 mps 550 mmHg 28%
11:00 +20°C° 0 mm 2 mps 551 mmHg 23%
12:00 +21°C° 0 mm 2 mps 550 mmHg 22%
13:00 +21°C° 0 mm 2 mps 550 mmHg 21%
14:00 +21°C° 0 mm 2 mps 549 mmHg 20%
15:00 +20°C° 0 mm 2 mps 549 mmHg 25%
16:00 +19°C° 0 mm 1 mps 548 mmHg 30%
17:00 +18°C° 0 mm 1 mps 548 mmHg 35%
18:00 +16°C° 0 mm 1 mps 548 mmHg 38%
19:00 +15°C° 0 mm 1 mps 548 mmHg 42%
20:00 +14°C° 0 mm 1 mps 548 mmHg 45%
21:00 +14°C° 0 mm 1 mps 548 mmHg 46%
22:00 +13°C° 0 mm 1 mps 547 mmHg 47%
23:00 +12°C° 0 mm 0 mps 547 mmHg 48%

28 November, Saturday

Time Temperature Precipitation Wind Pressure Humidity
00:00 +11°C° 0 mm 0 mps 547 mmHg 49%
01:00 +11°C° 0 mm 0 mps 546 mmHg 51%
02:00 +10°C° 0 mm 0 mps 546 mmHg 52%
03:00 +10°C° 0 mm 0 mps 546 mmHg 53%
04:00 +10°C° 0 mm 0 mps 546 mmHg 53%
05:00 +9°C° 0 mm 0 mps 546 mmHg 54%
06:00 +11°C° 0 mm 0 mps 547 mmHg 49%
07:00 +12°C° 0 mm 0 mps 548 mmHg 45%
08:00 +14°C° 0 mm 0 mps 549 mmHg 40%
09:00 +18°C° 0 mm 1 mps 549 mmHg 36%
10:00 +20°C° 0 mm 1 mps 550 mmHg 31%
11:00 +21°C° 0 mm 1 mps 551 mmHg 27%
12:00 +22°C° 0 mm 1 mps 550 mmHg 26%
13:00 +21°C° 0 mm 2 mps 550 mmHg 25%
14:00 +21°C° 0 mm 2 mps 549 mmHg 24%
15:00 +19°C° 0 mm 2 mps 548 mmHg 30%
16:00 +18°C° 0 mm 2 mps 548 mmHg 36%
17:00 +16°C° 0 mm 1 mps 547 mmHg 42%
18:00 +15°C° 0 mm 1 mps 547 mmHg 46%
19:00 +14°C° 0 mm 1 mps 548 mmHg 51%
20:00 +14°C° 0 mm 1 mps 548 mmHg 55%
21:00 +13°C° 0 mm 1 mps 547 mmHg 57%
22:00 +13°C° 0 mm 1 mps 547 mmHg 59%
23:00 +12°C° 0 mm 1 mps 547 mmHg 61%

29 November, Sunday

Time Temperature Precipitation Wind Pressure Humidity
00:00 +12°C° 0 mm 1 mps 547 mmHg 64%
01:00 +11°C° 0 mm 1 mps 546 mmHg 68%
02:00 +11°C° 0 mm 1 mps 546 mmHg 72%
03:00 +10°C° 0 mm 1 mps 546 mmHg 74%
04:00 +10°C° 0 mm 1 mps 546 mmHg 76%
05:00 +10°C° 0 mm 1 mps 546 mmHg 78%
06:00 +11°C° 0 mm 1 mps 547 mmHg 72%
07:00 +13°C° 0 mm 1 mps 548 mmHg 67%
08:00 +14°C° 0 mm 1 mps 549 mmHg 62%
09:00 +16°C° 0 mm 1 mps 550 mmHg 55%
10:00 +18°C° 0 mm 1 mps 550 mmHg 48%
11:00 +20°C° 0 mm 1 mps 551 mmHg 42%
12:00 +20°C° 0 mm 1 mps 550 mmHg 41%
13:00 +20°C° 0 mm 1 mps 550 mmHg 41%
14:00 +19°C° 0 mm 2 mps 549 mmHg 40%
15:00 +18°C° 0.1 mm 2 mps 549 mmHg 48%
16:00 +17°C° 0.1 mm 2 mps 549 mmHg 55%
17:00 +15°C° 0.1 mm 2 mps 548 mmHg 62%
18:00 +15°C° 0.1 mm 2 mps 549 mmHg 65%
19:00 +14°C° 0.1 mm 2 mps 549 mmHg 68%
20:00 +14°C° 0.1 mm 2 mps 549 mmHg 71%
21:00 +13°C° 0.1 mm 2 mps 549 mmHg 72%
22:00 +12°C° 0.1 mm 1 mps 549 mmHg 74%
23:00 +11°C° 0.1 mm 1 mps 548 mmHg 76%

30 November, Monday

Time Temperature Precipitation Wind Pressure Humidity
00:00 +11°C° 0 mm 1 mps 548 mmHg 78%
01:00 +9°C° 0 mm 2 mps 547 mmHg 81%
02:00 +9°C° 0 mm 2 mps 547 mmHg 83%
03:00 +8°C° 0 mm 2 mps 547 mmHg 83%
04:00 +8°C° 0 mm 2 mps 547 mmHg 82%
05:00 +8°C° 0 mm 2 mps 547 mmHg 82%
06:00 +8°C° 0 mm 2 mps 548 mmHg 79%
07:00 +9°C° 0 mm 2 mps 548 mmHg 76%
08:00 +9°C° 0 mm 2 mps 549 mmHg 73%
09:00 +10°C° 0 mm 2 mps 549 mmHg 70%
10:00 +10°C° 0 mm 2 mps 549 mmHg 67%
11:00 +12°C° 0 mm 2 mps 549 mmHg 64%
12:00 +13°C° 0 mm 2 mps 549 mmHg 61%
13:00 +13°C° 0 mm 2 mps 549 mmHg 58%
14:00 +14°C° 0 mm 2 mps 549 mmHg 55%
15:00 +13°C° 0 mm 1 mps 548 mmHg 58%
16:00 +12°C° 0 mm 1 mps 548 mmHg 61%
17:00 +12°C° 0 mm 1 mps 548 mmHg 63%
18:00 +11°C° 0 mm 1 mps 548 mmHg 67%
19:00 +10°C° 0 mm 1 mps 548 mmHg 70%
20:00 +9°C° 0 mm 1 mps 548 mmHg 73%
21:00 +9°C° 0 mm 1 mps 548 mmHg 75%
22:00 +8°C° 0 mm 1 mps 548 mmHg 77%
23:00 +8°C° 0 mm 1 mps 548 mmHg 79%
Show more